Theta_e
306 307 306 307 308 308 308 308 308 308 310 309 311 315 316 320 325 327 336 340 342 339 335 335 336 335 332 332 334 334 333 331 326 326 325 323 321 317 315 314 315 315 315 315
305 306 305 305 307 307 308 308 309 308 309 309 310 314 316 322 326 327 332 337 339 338 337 338 336 332 333 332 334 334 333 329 328 327 325 323 319 316 313 312 313 313 314 315
307 307 305 305 306 307 307 307 308 308 309 309 310 312 315 320 324 327 331 334 337 339 340 336 333 333 334 332 333 333 332 328 328 326 321 318 315 313 312 312 311 311 312 313
308 308 306 305 307 307 308 307 308 310 309 310 312 314 314 315 324 323 329 334 337 339 338 334 331 330 332 332 333 333 332 329 326 322 320 319 318 314 313 312 311 310 311 311
308 307 306 308 307 306 307 307 307 309 314 312 314 313 315 316 323 326 330 334 336 336 338 334 331 330 331 332 333 332 330 327 323 322 321 321 318 314 312 311 311 310 310 311
307 307 306 309 308 308 308 307 306 309 312 315 316 314 315 318 321 323 328 333 335 335 336 334 332 331 330 331 332 330 328 326 323 322 321 321 316 312 311 311 311 310 309 309
307 307 307 307 309 309 309 308 308 309 311 312 313 318 316 317 318 321 325 330 334 334 336 335 333 330 329 328 328 329 328 326 322 321 320 319 315 312 312 313 312 310 308 308
309 308 305 307 308 309 308 308 308 308 311 312 312 315 319 321 319 321 321 329 333 335 335 334 332 329 326 326 325 326 328 326 322 321 319 317 314 312 312 313 311 309 308 308
311 308 306 306 308 309 310 309 310 309 310 313 313 316 316 318 324 320 321 329 335 336 334 334 331 326 326 325 325 324 326 325 322 320 318 315 313 311 313 312 309 308 308 307
306 313 306 306 308 308 310 309 312 313 315 312 313 315 317 319 325 325 322 330 334 335 335 334 332 329 327 326 325 323 325 324 321 319 317 314 312 311 312 310 308 307 307 306
304 309 308 307 309 309 309 309 311 312 314 312 314 315 316 319 323 329 329 331 335 336 336 336 333 331 330 327 325 324 324 324 320 318 316 314 312 311 311 309 307 307 306 306
305 304 313 308 309 309 309 310 312 322 318 316 316 319 321 321 321 330 330 331 334 335 335 335 334 331 328 326 325 324 323 324 321 319 317 314 312 311 311 308 307 307 306 305
300 306 312 309 309 309 310 310 311 313 314 316 325 324 320 320 322 327 330 331 334 335 335 334 333 330 328 328 325 324 325 325 322 319 317 314 313 311 310 308 307 306 305 304
298 303 310 311 310 309 310 311 311 312 313 314 316 322 320 319 320 320 326 331 332 335 334 335 334 330 329 327 325 325 326 326 322 320 317 315 313 312 310 307 306 305 305 304
297 301 304 306 311 313 309 309 310 311 311 311 313 321 317 317 318 321 322 328 331 332 333 334 334 330 329 327 325 326 327 325 323 320 317 315 314 312 309 307 306 305 304 304
296 301 301 308 314 313 314 314 309 311 313 311 318 318 314 315 317 319 326 330 331 332 332 331 331 332 327 325 324 324 326 324 323 320 318 317 314 312 309 307 306 305 304 304
296 298 302 316 315 313 313 312 311 311 312 315 318 313 313 314 314 314 316 318 319 322 331 331 330 330 329 325 324 323 324 324 323 321 320 317 314 311 309 308 306 305 304 303
296 298 302 310 316 316 308 303 308 309 308 309 309 309 311 312 312 311 310 312 314 315 317 324 329 328 328 327 325 325 325 324 322 321 320 317 314 311 309 308 306 305 304 303
296 298 305 311 314 309 303 303 304 306 309 306 308 308 311 313 313 312 308 308 311 312 314 315 317 324 327 326 325 324 324 322 321 321 320 317 314 312 310 308 307 305 304 303
298 299 302 307 304 306 303 302 304 306 310 305 307 306 308 313 318 313 308 307 308 309 310 312 314 317 325 326 325 325 323 321 320 320 319 316 314 312 311 309 308 306 305 303
304 304 305 307 305 303 301 301 303 312 308 303 306 304 306 309 308 307 306 306 306 307 309 311 313 315 325 326 324 324 322 320 319 318 317 315 314 313 312 310 308 306 305 304
302 304 302 302 302 301 300 301 304 302 301 304 303 304 304 305 306 305 306 305 305 307 308 311 313 314 316 325 325 323 322 320 319 317 316 315 314 313 312 310 309 307 305 304
302 302 301 302 303 300 298 298 298 298 300 301 302 301 301 304 304 304 304 304 304 305 306 310 312 315 316 323 323 323 322 321 320 317 315 315 314 313 311 311 309 307 306 306
300 300 302 301 301 300 299 298 298 298 299 299 300 299 300 301 302 303 302 303 302 303 304 307 311 315 319 321 321 322 322 320 320 318 317 315 314 312 311 311 310 309 307 307
299 299 300 301 300 300 297 297 298 298 298 298 298 298 299 299 299 299 299 300 299 300 301 303 308 313 316 318 319 319 319 319 319 318 318 316 314 312 312 312 311 310 309 308
298 298 299 301 299 299 297 296 296 297 297 297 297 297 297 297 298 297 297 296 297 297 298 300 303 308 313 315 316 316 317 317 318 318 318 317 315 313 313 312 310 309 309 307
Wind_Speed
15 13 19 28 28 27 23 19 23 19 15 25 27 23 20 25 25 25 24 23 23 23 21 27 27 26 27 26 29 25 25 23 23 19 18 14 12 10 8 7 8 7 7 8
9 21 23 22 24 23 22 19 23 12 19 19 25 26 21 24 28 24 24 24 24 21 19 22 26 29 32 36 29 27 26 25 22 20 17 14 13 10 9 9 8 8 8 8
20 17 20 21 19 22 23 20 20 19 18 19 17 22 27 26 26 27 28 26 23 22 20 17 23 30 32 35 38 31 28 26 23 20 17 16 12 12 11 10 9 7 8 8
17 20 13 24 25 25 25 19 16 13 20 15 21 13 26 27 28 28 24 21 21 22 20 16 22 24 29 31 32 32 28 27 23 21 19 19 15 15 12 12 10 8 8 8
16 13 20 21 25 26 22 22 16 14 15 17 25 16 23 26 27 29 27 23 20 22 22 20 20 28 27 33 33 30 28 28 24 21 18 18 14 12 15 13 12 9 8 8
22 11 20 19 18 21 16 17 22 13 6 10 17 19 17 27 30 30 27 25 21 23 20 21 24 27 27 29 30 33 30 27 25 22 19 17 17 17 17 15 12 10 9 8
21 19 15 20 20 17 22 19 12 12 9 12 21 22 14 25 28 30 29 25 23 22 21 20 20 24 29 30 29 31 31 27 25 23 20 18 17 17 17 17 13 13 11 10
14 15 22 17 18 17 25 23 14 23 17 16 19 14 19 9 23 27 26 22 23 20 20 21 18 24 27 29 29 28 30 28 26 24 21 19 19 17 16 14 14 12 12 12
8 16 20 21 17 22 25 21 22 19 9 13 12 8 17 18 14 25 26 25 26 24 23 23 20 24 29 30 31 31 30 28 26 25 23 21 20 19 17 15 15 14 13 14
6 8 13 19 19 21 25 25 19 8 16 12 16 18 7 21 18 21 25 24 24 25 24 20 18 28 31 30 30 29 30 28 27 25 23 22 20 19 17 17 16 15 14 15
10 4 11 19 18 19 16 17 14 10 7 11 9 13 13 19 20 21 22 25 26 26 26 25 21 30 31 29 30 30 29 30 28 27 25 23 21 19 18 18 17 17 16 17
8 5 6 18 20 20 19 20 24 10 11 5 4 7 8 7 16 16 22 23 24 26 25 23 22 28 29 32 31 32 31 30 29 28 26 24 22 21 19 19 19 18 18 18
12 4 5 15 14 12 20 17 22 12 4 7 6 5 9 10 1 1 13 20 23 24 24 21 20 20 29 32 31 32 33 32 30 29 28 25 24 24 22 21 20 20 20 19
11 5 7 4 13 17 19 18 16 17 8 10 5 11 10 13 11 8 3 13 19 19 22 22 21 20 28 30 32 33 35 34 33 31 29 28 27 25 23 22 22 21 21 20
8 5 13 14 10 6 19 21 17 19 17 13 9 10 11 12 12 12 3 8 14 17 19 19 20 18 25 27 29 33 34 32 33 32 31 29 25 24 24 24 23 22 21 20
8 5 14 5 10 13 15 15 21 6 1 12 15 12 11 11 12 14 16 7 11 12 14 15 16 19 21 24 27 30 30 33 33 32 31 29 28 27 26 26 25 24 22 21
6 7 8 6 9 19 14 15 15 14 17 11 8 7 8 11 14 15 15 14 12 13 8 15 16 16 22 24 25 28 32 31 33 32 31 30 30 29 28 27 26 25 24 23
8 9 3 4 6 6 5 16 9 17 15 17 13 13 8 1 14 16 16 13 12 11 9 3 10 16 21 23 26 27 30 30 30 30 30 30 30 29 28 28 27 25 25 25
8 5 4 3 10 8 18 15 8 6 9 16 14 15 14 2 6 16 17 15 12 10 7 5 4 7 18 22 25 27 28 30 31 32 33 33 33 31 30 29 28 26 25 24
5 8 4 6 8 8 14 20 10 4 6 16 15 15 16 11 5 8 17 14 13 12 11 7 3 6 16 21 25 28 30 31 32 33 33 33 33 33 33 32 30 28 26 25
5 4 14 10 6 7 24 18 4 1 6 13 13 13 13 10 7 11 14 13 15 15 14 12 3 3 14 19 23 26 28 31 29 28 29 31 32 33 31 29 28 28 26 24
11 6 6 6 9 10 22 12 7 6 6 10 13 15 15 12 14 13 15 15 15 16 18 15 8 4 10 17 21 21 22 20 25 27 27 28 30 30 29 29 27 27 26 26
10 8 9 9 6 3 11 7 7 6 4 11 13 14 14 15 14 17 17 18 16 19 18 17 14 5 11 16 19 15 16 20 23 26 27 27 28 28 29 29 28 28 28 27
12 14 12 2 9 13 15 15 14 12 11 12 14 15 16 16 18 17 17 17 18 27 25 24 22 10 6 13 12 15 14 18 22 24 25 26 28 29 28 28 29 29 30 28
9 10 10 10 16 8 18 16 14 13 12 14 16 17 17 16 17 16 16 17 20 23 28 27 21 14 5 3 11 10 12 17 23 22 22 24 26 29 27 28 29 29 30 33
7 7 6 6 11 7 10 13 16 16 15 14 15 18 21 21 19 20 17 23 23 23 25 24 24 25 15 4 4 8 13 18 19 19 21 22 22 24 25 26 23 26 24 31
Wind_Direction
206 210 218 217 219 232 225 208 221 210 182 204 210 212 219 192 207 209 203 203 197 197 194 186 182 171 159 164 167 173 170 169 163 161 161 156 151 144 143 143 137 136 148 146
194 230 237 231 230 233 235 216 213 181 202 201 207 209 210 198 206 203 204 211 199 193 187 173 165 158 170 174 174 178 179 173 172 169 165 161 152 145 149 145 139 141 141 143
236 246 228 234 224 224 219 221 212 207 188 203 196 216 213 195 208 202 207 211 199 187 174 160 165 167 178 180 178 182 180 176 175 171 160 148 145 144 149 149 141 142 138 141
248 260 230 214 218 210 210 213 217 205 185 193 205 204 208 201 203 209 213 207 194 183 175 164 163 172 179 178 178 183 179 177 177 171 165 163 162 161 162 152 153 141 133 138
242 233 211 218 211 201 221 196 204 216 204 208 191 237 190 198 208 207 203 201 199 193 180 169 171 173 178 178 177 179 178 177 176 173 170 168 162 157 154 150 147 142 139 141
255 235 216 213 212 198 200 194 212 210 203 227 193 213 217 195 204 202 197 193 197 193 181 172 171 170 175 173 176 173 176 177 175 172 174 171 164 162 159 155 152 155 149 146
221 232 218 215 210 195 205 197 179 193 198 215 211 200 235 191 201 204 197 194 188 192 177 171 171 170 169 166 170 174 175 176 177 173 176 170 169 168 165 158 162 163 157 160
229 207 206 199 226 185 197 193 179 180 203 194 195 218 211 203 200 204 200 189 185 185 183 179 173 167 167 165 172 174 175 177 177 176 174 173 171 167 167 166 162 165 164 162
298 235 181 206 212 193 187 210 193 207 208 196 178 217 211 213 208 195 198 185 189 183 182 181 168 167 171 173 180 176 177 178 178 175 175 175 171 170 169 163 157 162 164 158
296 272 190 197 205 209 179 198 201 233 187 197 199 195 193 197 196 192 196 185 187 187 183 181 176 175 181 180 181 176 179 178 179 176 179 176 174 174 168 160 158 166 163 157
305 255 195 191 200 188 181 199 217 212 205 200 185 204 212 196 195 186 186 184 185 188 179 182 181 189 184 178 176 176 179 180 179 180 180 177 176 175 169 163 163 168 164 161
356 306 262 187 192 196 195 196 198 186 183 207 241 149 12 296 200 186 184 186 186 184 182 182 182 181 173 175 177 176 178 184 184 182 180 179 177 176 173 167 167 171 168 166
357 284 243 205 175 233 193 200 198 196 148 179 153 131 36 15 67 288 197 187 182 183 180 177 174 180 176 180 176 176 185 186 185 184 181 180 182 180 176 171 171 175 171 169
329 283 328 218 182 185 203 194 208 206 205 183 201 120 34 20 7 8 258 189 190 185 181 179 176 183 185 181 175 180 190 188 185 186 184 183 185 182 177 173 175 176 175 170
358 284 337 302 274 250 194 203 193 200 212 214 187 81 24 14 2 359 302 184 178 177 181 185 180 181 185 181 179 188 192 188 184 186 185 187 184 182 178 176 177 178 176 174
341 302 323 274 176 121 64 9 208 195 287 220 118 80 14 21 30 39 33 121 156 176 180 186 185 181 188 185 184 185 189 187 185 186 187 186 184 183 182 177 177 179 176 174
306 323 335 164 148 136 53 6 58 64 35 358 129 15 0 36 43 38 41 48 47 31 180 182 193 195 187 190 186 186 191 187 189 189 189 187 185 184 183 178 179 180 177 176
270 303 281 295 277 120 86 21 25 63 40 32 39 10 349 23 70 45 35 30 31 26 23 21 191 195 193 190 187 189 191 190 190 191 189 187 185 184 183 180 183 181 179 181
227 277 305 310 82 123 32 0 334 348 49 17 15 12 359 100 180 52 19 10 10 7 3 344 314 233 189 187 181 185 186 188 190 191 189 187 185 184 181 182 183 181 181 183
201 243 291 33 60 45 346 334 320 252 56 359 358 16 12 347 165 20 355 360 2 360 354 341 314 266 184 185 184 185 186 187 191 189 189 187 184 183 184 184 182 182 184 185
3 1 34 47 78 60 349 342 301 1 358 324 355 7 16 30 13 332 350 2 6 360 357 350 6 256 193 183 183 190 190 195 187 184 185 186 186 185 186 182 181 180 182 184
29 22 22 30 58 33 343 7 42 317 304 345 7 7 9 358 4 1 9 9 9 5 0 9 16 325 234 193 185 195 200 197 188 181 184 187 187 185 183 181 180 182 182 185
45 36 52 27 67 65 355 11 346 343 347 16 14 11 4 11 3 10 7 9 9 6 359 7 16 350 219 200 184 195 197 195 194 184 186 187 186 187 182 181 182 182 185 188
35 20 50 8 23 46 22 9 15 17 14 13 19 19 17 15 15 20 16 12 4 2 1 13 19 19 159 187 169 214 193 190 195 193 186 190 188 189 188 188 188 187 186 190
4 9 42 72 24 62 24 12 13 19 24 22 21 24 23 23 25 26 24 21 15 9 6 11 16 2 70 157 209 202 200 197 199 194 193 196 193 192 192 197 194 196 198 192
2 19 19 32 40 16 35 15 19 26 23 27 20 20 23 24 28 27 26 26 27 23 19 17 17 21 29 70 181 196 197 202 199 193 195 197 194 192 198 198 196 205 205 206